Weather History for Cheboygan, MI

Change the Weather History Date:

Wednesday, June 26, 2013

  Actual Average (KPLN) Record (KPLN)
Temperature  
Mean Temperature 68 °F -  
Max Temperature 81 °F 78 °F 94 °F (1991)
Min Temperature 55 °F 51 °F 35 °F (2004)
Cooling Degree Days 3    
Growing Degree Days 18 (Base 50)    
Moisture  
Dew Point 61 °F    
Average Humidity 77    
Maximum Humidity 100    
Minimum Humidity 50    
Precipitation  
Precipitation 0.00 in - - ()
Sea Level Pressure  
Sea Level Pressure 29.80 in    
Wind  
Wind Speed 2 mph (NE)    
Max Wind Speed 10 mph    
Max Gust Speed -    
Visibility 9 miles    
Events Fog    
Averages and records for this station are not official NWS values.
T = Trace of Precipitation, MM = Missing Value Source: NWS Daily Summary

Daily Weather History Graph

Daily Weather History Graph

Search for Another Location

Airport:

Trip Planner

Search our weather history database for the weather conditions in past years. The results will help you decide how hot, cold, wet, or windy it might be!

Date:

Astronomy

Jun. 26, 2013 Rise Set
Actual Time 5:50 AM EDT 9:31 PM EDT
Civil Twilight 5:12 AM EDT 10:09 PM EDT
Nautical Twilight 4:21 AM EDT 11:00 PM EDT
Astronomical Twilight 3:11 AM EDT 12:10 AM EDT
Moon 11:39 PM EDT 9:53 AM EDT
Length of Visible Light 16h 57m
Length of Day
15h 41m
Waning Gibbous, 85% of the Moon is Illuminated
Jun 26
Waning Gibbous
Jun 30
Last Quarter
Jul 8
New
Jul 15
First Quarter
Jul 22
Full

Hourly Weather History & Observations

Time (EDT) Temp. Heat Index Dew Point Humidity Pressure Visibility Wind Dir Wind Speed Gust Speed Precip Events Conditions
12:16 AM 61.2 °F - 59.0 °F 93% 29.83 in 10.0 mi Calm Calm - N/A   Clear
12:35 AM 60.6 °F - 58.3 °F 92% 29.83 in 10.0 mi Calm Calm - N/A   Clear
12:55 AM 60.6 °F - 59.0 °F 94% 29.83 in 10.0 mi Calm Calm - N/A   Clear
1:16 AM 59.4 °F - 57.7 °F 94% 29.83 in 7.0 mi NNE 3.5 mph - N/A   Clear
1:35 AM 59.4 °F - 57.9 °F 95% 29.83 in 5.0 mi Calm Calm - N/A   Clear
1:55 AM 59.0 °F - 57.4 °F 94% 29.83 in 0.8 mi Calm Calm - N/A   Mist
2:16 AM 58.6 °F - 57.2 °F 95% 29.83 in 0.2 mi Calm Calm - N/A Fog Fog
2:35 AM 58.8 °F - 57.4 °F 95% 29.82 in 5.0 mi Calm Calm - N/A   Clear
2:55 AM 58.3 °F - 56.8 °F 95% 29.82 in 7.0 mi Calm Calm - N/A   Clear
3:15 AM 58.3 °F - 57.2 °F 96% 29.81 in 10.0 mi Calm Calm - N/A   Clear
3:22 AM 58.1 °F - 56.7 °F 95% 29.81 in 7.0 mi Calm Calm - N/A   Clear
4:03 AM 59.0 °F - 57.2 °F 94% 29.81 in 7.0 mi Calm Calm - N/A   Clear
4:27 AM 57.2 °F - 55.4 °F 94% 29.80 in 4.0 mi Calm Calm - N/A   Clear
4:44 AM 57.2 °F - 55.4 °F 94% 29.80 in 1.2 mi Calm Calm - N/A   Mist
5:04 AM 55.4 °F - 53.6 °F 94% 29.80 in 10.0 mi East 3.5 mph - N/A   Clear
5:26 AM 55.4 °F - 53.6 °F 94% 29.80 in 5.0 mi Calm Calm - N/A   Clear
5:47 AM 57.2 °F - 57.2 °F 100% 29.80 in 4.0 mi Calm Calm - N/A   Scattered Clouds
6:02 AM 57.2 °F - 55.4 °F 94% 29.81 in 0.2 mi Calm Calm - N/A Fog Fog
6:22 AM 57.2 °F - 55.4 °F 94% 29.81 in 0.2 mi Calm Calm - N/A Fog Fog
6:43 AM 57.2 °F - 55.4 °F 94% 29.82 in 2.0 mi Calm Calm - N/A   Mostly Cloudy
7:02 AM 59.0 °F - 57.2 °F 94% 29.81 in 5.0 mi Calm Calm - N/A   Clear
7:03 AM 58.8 °F - 57.6 °F 96% 29.81 in 7.0 mi Calm Calm - N/A   Clear
7:15 AM 60.1 °F - 58.8 °F 96% 29.81 in 10.0 mi Calm Calm - N/A   Clear
7:35 AM 62.6 °F - 61.0 °F 94% 29.82 in 10.0 mi Calm Calm - N/A   Clear
7:55 AM 64.4 °F - 62.4 °F 93% 29.82 in 10.0 mi Calm Calm - N/A   Clear
8:15 AM 65.3 °F - 62.6 °F 91% 29.82 in 10.0 mi Calm Calm - N/A   Clear
8:35 AM 66.7 °F - 63.0 °F 88% 29.83 in 10.0 mi Calm Calm - N/A   Clear
8:55 AM 69.3 °F - 63.7 °F 82% 29.83 in 10.0 mi Calm Calm - N/A   Clear
9:15 AM 72.7 °F - 64.4 °F 75% 29.83 in 10.0 mi Calm Calm - N/A   Clear
9:35 AM 73.6 °F - 64.0 °F 72% 29.83 in 10.0 mi Calm Calm - N/A   Clear
9:56 AM 71.8 °F - 64.0 °F 77% 29.82 in 10.0 mi ENE 3.5 mph - N/A   Clear
10:15 AM 73.4 °F - 64.6 °F 74% 29.82 in 10.0 mi NNE 5.8 mph - N/A   Clear
10:36 AM 70.5 °F - 63.0 °F 77% 29.83 in 10.0 mi NNE 4.6 mph - N/A   Clear
10:55 AM 72.0 °F - 63.9 °F 76% 29.83 in 10.0 mi North 3.5 mph - N/A   Clear
11:15 AM 73.9 °F - 64.6 °F 72% 29.83 in 10.0 mi North 3.5 mph - N/A   Clear
11:35 AM 76.1 °F - 65.7 °F 70% 29.83 in 10.0 mi North 6.9 mph - N/A   Clear
11:55 AM 75.4 °F - 65.1 °F 70% 29.83 in 10.0 mi North 5.8 mph - N/A   Clear
12:15 PM 76.3 °F - 66.0 °F 70% 29.83 in 10.0 mi North 5.8 mph - N/A   Clear
12:35 PM 76.6 °F - 65.3 °F 68% 29.83 in 10.0 mi North 6.9 mph - N/A   Clear
12:55 PM 77.2 °F - 65.5 °F 67% 29.82 in 10.0 mi NNE 4.6 mph - N/A   Clear
1:15 PM 78.1 °F - 65.7 °F 65% 29.81 in 10.0 mi North 4.6 mph - N/A   Clear
1:36 PM 78.8 °F - 65.7 °F 64% 29.81 in 10.0 mi NNE 4.6 mph - N/A   Clear
1:55 PM 79.7 °F - 65.8 °F 62% 29.81 in 10.0 mi NNE 5.8 mph - N/A   Clear
2:15 PM 80.1 °F 81.8 °F 64.4 °F 59% 29.81 in 10.0 mi NNE 3.5 mph - N/A   Clear
2:35 PM 81.7 °F 83.3 °F 64.8 °F 56% 29.80 in 10.0 mi NE 6.9 mph - N/A   Clear
2:56 PM 81.3 °F 83.0 °F 64.8 °F 57% 29.80 in 10.0 mi ENE 6.9 mph - N/A   Clear
3:15 PM 79.0 °F - 65.8 °F 64% 29.79 in 10.0 mi ENE 5.8 mph - N/A   Clear
3:35 PM 78.8 °F - 65.5 °F 64% 29.79 in 10.0 mi ENE 10.4 mph - N/A   Clear
3:56 PM 78.3 °F - 65.1 °F 64% 29.78 in 10.0 mi ENE 10.4 mph - N/A   Clear
4:15 PM 78.3 °F - 65.5 °F 65% 29.78 in 10.0 mi ENE 6.9 mph - N/A   Clear
4:36 PM 78.6 °F - 65.8 °F 65% 29.77 in 10.0 mi ENE 9.2 mph - N/A   Clear
4:55 PM 78.8 °F - 63.5 °F 59% 29.77 in 10.0 mi ENE 6.9 mph - N/A   Clear
5:16 PM 80.2 °F 81.9 °F 64.2 °F 58% 29.77 in 10.0 mi ENE 6.9 mph - N/A   Clear
5:35 PM 80.6 °F 82.0 °F 63.7 °F 56% 29.77 in 10.0 mi ENE 8.1 mph - N/A   Clear
5:56 PM 79.2 °F - 63.1 °F 58% 29.78 in 10.0 mi ENE 6.9 mph - N/A   Clear
6:15 PM 77.7 °F - 62.8 °F 60% 29.77 in 10.0 mi NE 4.6 mph - N/A   Clear
6:35 PM 78.1 °F - 64.0 °F 62% 29.76 in 10.0 mi NE 4.6 mph - N/A   Clear
6:56 PM 77.7 °F - 63.7 °F 62% 29.77 in 10.0 mi NE 4.6 mph - N/A   Clear
7:15 PM 76.1 °F - 63.5 °F 65% 29.76 in 10.0 mi ENE 4.6 mph - N/A   Clear
7:35 PM 78.8 °F - 62.1 °F 56% 29.76 in 10.0 mi ENE 4.6 mph - N/A   Clear
7:56 PM 78.6 °F - 58.5 °F 50% 29.76 in 10.0 mi East 6.9 mph - N/A   Clear
8:15 PM 77.2 °F - 58.8 °F 53% 29.76 in 10.0 mi East 3.5 mph - N/A   Clear
8:35 PM 76.3 °F - 59.4 °F 56% 29.75 in 10.0 mi East 5.8 mph - N/A   Clear
8:55 PM 74.7 °F - 60.8 °F 62% 29.75 in 10.0 mi ESE 4.6 mph - N/A   Clear
9:15 PM 73.9 °F - 60.8 °F 63% 29.75 in 10.0 mi Calm Calm - N/A   Clear
9:36 PM 72.5 °F - 61.5 °F 68% 29.76 in 10.0 mi Calm Calm - N/A   Clear
9:55 PM 68.7 °F - 62.8 °F 81% 29.77 in 10.0 mi Calm Calm - N/A   Clear
10:15 PM 69.8 °F - 62.6 °F 78% 29.77 in 10.0 mi SE 3.5 mph - N/A   Scattered Clouds
10:36 PM 72.1 °F - 63.0 °F 73% 29.77 in 10.0 mi SSE 3.5 mph - N/A   Scattered Clouds
10:55 PM 72.5 °F - 64.0 °F 75% 29.78 in 10.0 mi SSW 4.6 mph - N/A   Mostly Cloudy
11:15 PM 71.6 °F - 63.7 °F 76% 29.78 in 10.0 mi West 8.1 mph - N/A   Mostly Cloudy
11:35 PM 70.2 °F - 61.7 °F 74% 29.78 in 10.0 mi Calm Calm - N/A   Mostly Cloudy
11:55 PM 69.3 °F - 61.7 °F 77% 29.78 in 10.0 mi Calm Calm - N/A   Scattered Clouds